Location: Newark
(7.0858°N, 171.3717°E)
Time: 07:35:57
(UTC+00:00)

Courier 1B - Pass Details

Date: 02 December 2020
Orbit: 962 x 1209 km, 28.3° (Epoch: 20 January)

Event Time Altitude Azimuth Distance (km) Brightness Sun altitude
Rises 14:53:08 0° 309° (NW) 3,883 - -51.1°
Reaches altitude 10° 14:55:59 10° 315° (NW) 2,964 - -50.5°
Maximum altitude 15:02:57 45° 26° (NNE) 1,528 - -48.9°
Exits shadow 15:07:45 21° 87° (E) 2,358 9.8 -47.9°
Drops below altitude 10° 15:10:16 10° 97° (E) 3,111 10.6 -47.3°
Sets 15:13:18 0° 103° (ESE) 4,092 11.4 -46.6°
